When you browse on this site, cookies collect data to enhance your experience and personalize the content and advertising you see.
Visit our Privacy Policy to learn more. By continuing to use the site, you agree to this use of cookies and data.
  • In Österreich
  • Länderverzeichnis
  • Für 7 Tage
  • Wassertemperatur
  • Wetterkarte
  • News
  • Widgets
  • user-avatar
    Anmelden

    Stündliche Wetter Privolnyy

    Heute, 22 Februar, Samstag

    Zeit Temperatur Niederschläge Wind Luftdruck Luftfeuchtigkeit
    00:00 -7°C° 0 mm 1 m/S 757 mmHg 91%
    01:00 -8°C° 0 mm 1 m/S 757 mmHg 92%
    02:00 -8°C° 0 mm 1 m/S 757 mmHg 92%
    03:00 -8°C° 0 mm 1 m/S 757 mmHg 92%
    04:00 -9°C° 0 mm 0 m/S 757 mmHg 90%
    05:00 -8°C° 0 mm 1 m/S 758 mmHg 91%
    06:00 -8°C° 0 mm 1 m/S 758 mmHg 93%
    07:00 -8°C° 0 mm 1 m/S 758 mmHg 94%
    08:00 -7°C° 0 mm 1 m/S 758 mmHg 94%
    09:00 -4°C° 0 mm 1 m/S 759 mmHg 95%
    10:00 -2°C° 0 mm 1 m/S 759 mmHg 95%
    11:00 -2°C° 0 mm 1 m/S 759 mmHg 94%
    12:00 -1°C° 0 mm 1 m/S 759 mmHg 92%
    13:00 0°C° 0 mm 1 m/S 759 mmHg 90%
    14:00 0°C° 0 mm 1 m/S 760 mmHg 91%
    15:00 -1°C° 0 mm 1 m/S 760 mmHg 91%
    16:00 -1°C° 0 mm 1 m/S 760 mmHg 91%
    17:00 -3°C° 0 mm 1 m/S 760 mmHg 91%
    18:00 -4°C° 0 mm 1 m/S 760 mmHg 92%
    19:00 -6°C° 0 mm 1 m/S 760 mmHg 93%
    20:00 -7°C° 0 mm 1 m/S 760 mmHg 93%
    21:00 -7°C° 0 mm 1 m/S 760 mmHg 93%
    22:00 -8°C° 0 mm 1 m/S 760 mmHg 93%
    23:00 -8°C° 0 mm 1 m/S 760 mmHg 93%

    Morgen, 23 Februar, Sonntag

    Zeit Temperatur Niederschläge Wind Luftdruck Luftfeuchtigkeit
    00:00 -8°C° 0 mm 1 m/S 760 mmHg 93%
    01:00 -8°C° 0 mm 1 m/S 759 mmHg 94%
    02:00 -9°C° 0 mm 1 m/S 759 mmHg 94%
    03:00 -9°C° 0 mm 1 m/S 759 mmHg 95%
    04:00 -9°C° 0 mm 1 m/S 759 mmHg 95%
    05:00 -9°C° 0 mm 1 m/S 759 mmHg 95%
    06:00 -10°C° 0 mm 2 m/S 758 mmHg 95%
    07:00 -10°C° 0 mm 2 m/S 758 mmHg 95%
    08:00 -10°C° 0 mm 2 m/S 758 mmHg 95%
    09:00 -10°C° 0 mm 3 m/S 758 mmHg 95%
    10:00 -9°C° 0 mm 3 m/S 757 mmHg 95%
    11:00 -10°C° 0 mm 4 m/S 757 mmHg 93%
    12:00 -9°C° 0 mm 4 m/S 756 mmHg 92%
    13:00 -8°C° 0 mm 5 m/S 755 mmHg 91%
    14:00 -8°C° 0 mm 5 m/S 755 mmHg 91%
    15:00 -8°C° 0 mm 5 m/S 754 mmHg 91%
    16:00 -8°C° 0 mm 5 m/S 754 mmHg 92%
    17:00 -8°C° 0 mm 5 m/S 753 mmHg 92%
    18:00 -8°C° 0 mm 5 m/S 752 mmHg 93%
    19:00 -8°C° 0 mm 5 m/S 752 mmHg 94%
    20:00 -8°C° 0 mm 6 m/S 751 mmHg 93%
    21:00 -8°C° 0 mm 6 m/S 751 mmHg 92%
    22:00 -6°C° 0 mm 6 m/S 750 mmHg 92%
    23:00 -6°C° 0.1 mm 6 m/S 749 mmHg 92%

    übermorgen, 24 Februar, Montag

    Zeit Temperatur Niederschläge Wind Luftdruck Luftfeuchtigkeit
    00:00 -6°C° 0.1 mm 6 m/S 748 mmHg 92%
    01:00 -6°C° 0.1 mm 6 m/S 747 mmHg 92%
    02:00 -7°C° 0 mm 7 m/S 747 mmHg 93%
    03:00 -7°C° 0 mm 7 m/S 746 mmHg 93%
    04:00 -7°C° 0 mm 7 m/S 745 mmHg 93%
    05:00 -6°C° 0.1 mm 7 m/S 744 mmHg 93%
    06:00 -6°C° 0.1 mm 7 m/S 744 mmHg 93%
    07:00 -5°C° 0.1 mm 8 m/S 743 mmHg 93%
    08:00 -5°C° 0.1 mm 8 m/S 742 mmHg 94%
    09:00 -4°C° 0.1 mm 9 m/S 742 mmHg 95%
    10:00 -3°C° 0.1 mm 9 m/S 741 mmHg 95%
    11:00 -3°C° 0.4 mm 9 m/S 741 mmHg 96%
    12:00 -3°C° 0.4 mm 9 m/S 741 mmHg 97%
    13:00 -4°C° 0.4 mm 9 m/S 741 mmHg 98%
    14:00 -4°C° 0.2 mm 8 m/S 741 mmHg 98%
    15:00 -4°C° 0.2 mm 8 m/S 741 mmHg 97%
    16:00 -2°C° 0.2 mm 8 m/S 741 mmHg 97%
    17:00 -3°C° 0 mm 7 m/S 742 mmHg 95%
    18:00 -3°C° 0 mm 6 m/S 742 mmHg 93%
    19:00 -2°C° 0 mm 5 m/S 743 mmHg 92%
    20:00 -2°C° 0 mm 4 m/S 743 mmHg 93%
    21:00 -2°C° 0 mm 4 m/S 744 mmHg 94%
    22:00 -3°C° 0 mm 4 m/S 744 mmHg 95%
    23:00 -4°C° 0 mm 3 m/S 744 mmHg 95%

    25 Februar, Dienstag

    Zeit Temperatur Niederschläge Wind Luftdruck Luftfeuchtigkeit
    00:00 -4°C° 0 mm 3 m/S 744 mmHg 94%
    01:00 -5°C° 0 mm 3 m/S 744 mmHg 94%
    02:00 -4°C° 0 mm 3 m/S 744 mmHg 95%
    03:00 -2°C° 0 mm 3 m/S 744 mmHg 95%
    04:00 -2°C° 0 mm 3 m/S 744 mmHg 96%
    05:00 -2°C° 0.2 mm 4 m/S 743 mmHg 96%
    06:00 -2°C° 0.2 mm 4 m/S 743 mmHg 97%
    07:00 -2°C° 0.2 mm 5 m/S 742 mmHg 97%
    08:00 -2°C° 0 mm 5 m/S 742 mmHg 96%
    09:00 -1°C° 0 mm 5 m/S 742 mmHg 95%
    10:00 -1°C° 0 mm 5 m/S 742 mmHg 95%
    11:00 -1°C° 0 mm 5 m/S 742 mmHg 96%
    12:00 -2°C° 0 mm 6 m/S 741 mmHg 98%
    13:00 -2°C° 0 mm 6 m/S 741 mmHg 99%
    14:00 -2°C° 0 mm 6 m/S 740 mmHg 99%
    15:00 -2°C° 0 mm 6 m/S 740 mmHg 99%
    16:00 -2°C° 0 mm 6 m/S 739 mmHg 99%
    17:00 -2°C° 0.2 mm 6 m/S 739 mmHg 99%
    18:00 -1°C° 0.2 mm 5 m/S 738 mmHg 98%
    19:00 -1°C° 0.2 mm 5 m/S 738 mmHg 98%
    20:00 -1°C° 0.9 mm 5 m/S 738 mmHg 98%
    21:00 -1°C° 0.9 mm 4 m/S 737 mmHg 98%
    22:00 -1°C° 0.9 mm 4 m/S 737 mmHg 98%
    23:00 -1°C° 0.2 mm 4 m/S 737 mmHg 98%

    26 Februar, Mittwoch

    Zeit Temperatur Niederschläge Wind Luftdruck Luftfeuchtigkeit
    00:00 0°C° 0.2 mm 3 m/S 737 mmHg 98%
    01:00 -1°C° 0.2 mm 3 m/S 737 mmHg 98%
    02:00 -2°C° 0.4 mm 5 m/S 738 mmHg 96%
    03:00 -4°C° 0.4 mm 7 m/S 739 mmHg 94%
    04:00 -6°C° 0.4 mm 8 m/S 739 mmHg 92%
    05:00 -8°C° 0 mm 7 m/S 740 mmHg 91%
    06:00 -9°C° 0 mm 6 m/S 741 mmHg 89%
    07:00 -11°C° 0 mm 5 m/S 742 mmHg 88%
    08:00 -10°C° 0 mm 4 m/S 743 mmHg 89%
    09:00 -10°C° 0 mm 4 m/S 744 mmHg 91%
    10:00 -9°C° 0 mm 3 m/S 744 mmHg 92%
    11:00 -8°C° 0 mm 3 m/S 745 mmHg 92%
    12:00 -7°C° 0 mm 3 m/S 745 mmHg 91%
    13:00 -6°C° 0 mm 3 m/S 745 mmHg 91%
    14:00 -6°C° 0 mm 3 m/S 746 mmHg 91%
    15:00 -6°C° 0 mm 3 m/S 746 mmHg 90%
    16:00 -6°C° 0 mm 3 m/S 746 mmHg 89%
    17:00 -8°C° 0 mm 4 m/S 746 mmHg 90%
    18:00 -8°C° 0 mm 4 m/S 746 mmHg 91%
    19:00 -9°C° 0 mm 4 m/S 746 mmHg 91%
    20:00 -8°C° 0 mm 4 m/S 747 mmHg 91%
    21:00 -8°C° 0 mm 4 m/S 747 mmHg 91%
    22:00 -7°C° 0 mm 4 m/S 747 mmHg 91%
    23:00 -7°C° 0 mm 4 m/S 747 mmHg 92%

    27 Februar, Donnerstag

    Zeit Temperatur Niederschläge Wind Luftdruck Luftfeuchtigkeit
    00:00 -5°C° 0 mm 4 m/S 747 mmHg 93%
    01:00 -5°C° 0 mm 5 m/S 747 mmHg 94%
    02:00 -4°C° 0.1 mm 5 m/S 747 mmHg 95%
    03:00 -4°C° 0.1 mm 5 m/S 748 mmHg 96%
    04:00 -2°C° 0.1 mm 5 m/S 748 mmHg 97%
    05:00 -2°C° 0.1 mm 5 m/S 748 mmHg 97%
    06:00 -2°C° 0.1 mm 5 m/S 748 mmHg 96%
    07:00 -3°C° 0.1 mm 6 m/S 748 mmHg 96%
    08:00 -3°C° 0 mm 6 m/S 749 mmHg 94%
    09:00 -3°C° 0 mm 6 m/S 749 mmHg 92%
    10:00 -3°C° 0 mm 6 m/S 750 mmHg 90%
    11:00 -3°C° 0 mm 6 m/S 750 mmHg 92%
    12:00 -2°C° 0 mm 6 m/S 751 mmHg 94%
    13:00 -2°C° 0 mm 6 m/S 751 mmHg 96%
    14:00 -2°C° 0 mm 6 m/S 751 mmHg 93%
    15:00 -2°C° 0 mm 6 m/S 751 mmHg 91%
    16:00 -2°C° 0 mm 6 m/S 752 mmHg 88%
    17:00 -3°C° 0 mm 6 m/S 752 mmHg 86%
    18:00 -3°C° 0 mm 6 m/S 752 mmHg 83%
    19:00 -4°C° 0 mm 6 m/S 752 mmHg 81%
    20:00 -3°C° 0 mm 6 m/S 752 mmHg 79%
    21:00 -3°C° 0 mm 6 m/S 752 mmHg 77%
    22:00 -2°C° 0 mm 7 m/S 752 mmHg 75%
    23:00 -3°C° 0 mm 6 m/S 752 mmHg 75%
    Mehr zeigen